Regional Weather Roundup
Issued by NWS

Home | Current Version | Previous Version | Text Only | Print | Product List | Glossary On
Versions: 1 2 3 4 5 6 7 8 9 10 11 12 13 14 15 16 17 18 19 20 21 22 23 24 25 26 27 28 29 30 31 32 33 34 35 36 37 38 39 40 41 42 43 44 45 46 47 48 49 50
248
ASUS43 KMKX 271321
RWRWI

WISCONSIN REGIONAL WEATHER ROUNDUP
NATIONAL WEATHER SERVICE MILWAUKEE/SULLIVAN WI
800 AM CDT SUN MAY 27 2018

NOTE: "FAIR" INDICATES FEW OR NO CLOUDS BELOW 12,000 FEET WITH NO
SIGNIFICANT WEATHER AND/OR OBSTRUCTIONS TO VISIBILITY.

WIZ001-002-006>008-014>016-023>028-271400-
NORTHWEST WISCONSIN

CITY           SKY/WX    TMP DP  RH WIND       PRES   REMARKS
SUPERIOR ARPT  FAIR      59  54  84 CALM      29.84R
ASHLAND        FAIR      57  55  93 CALM      29.84R
HAYWARD        FAIR      67  61  81 CALM      29.84R
SIREN          FAIR      69  58  68 CALM      29.84R
CUMBERLAND     FAIR      68  57  68 CALM      29.85R
RICE LAKE      FAIR      67  59  75 CALM      29.85R
CHETEK         FAIR      68  60  75 MISG      29.85R
LADYSMITH      FAIR      70  62  76 CALM      29.87R
EAU CLAIRE     FAIR      69  63  81 CALM      29.82R
MENOMONIE      FAIR      69  64  84 CALM      29.84R
NEW RICHMOND   FAIR      72  62  71 CALM      29.84R
OSCEOLA        FAIR      71  60  68 E3        29.86R
$$

WIZ003>005-009-010-017-018-271400-
NORTH CENTRAL WISCONSIN

CITY           SKY/WX    TMP DP  RH WIND       PRES   REMARKS
MANITOWISH WTR FAIR      65  63  92 CALM      29.85R
ARBOR VITAE    FAIR      72  61  67 CALM      29.85R
WOODRUFF       FAIR      72  61  67 CALM      29.85R
RHINELANDER    FAIR      74  61  63 SW3       29.86R
EAGLE RIVER    FAIR      70  60  69 CALM      29.85R
LAND O LAKES   FAIR      69  60  73 W3        29.87S
PHILLIPS       FAIR      72  60  66 CALM      29.85R
TOMAHAWK       FAIR      67  59  74 CALM      29.85S
MEDFORD        FAIR      71  63  74 CALM      29.84S
MERRILL        FAIR      69  62  77 CALM      29.85S
$$

WIZ029-030-035-036-043>047-271400-
CENTRAL WISCONSIN

CITY           SKY/WX    TMP DP  RH WIND       PRES   REMARKS
WAUSAU         NOT AVBL
MOSINEE        MOSUNNY   72  64  78 CALM      29.85S
MARSHFIELD     FAIR      74  67  78 SW3       29.83R
STEVENS POINT  FAIR      72  65  77 CALM      29.84S
WAUPACA        FAIR      78  66  66 CALM      29.83R HX  80
WAUTOMA        FAIR      75  66  73 S5        29.84R
WISC RAPIDS    FAIR      76  64  66 CALM      29.85R
CAMP DOUGLAS   FAIR      76  67  73 S5        29.83R
$$

WIZ011>013-019>022-031-037>040-048>050-271400-
NORTHEAST WISCONSIN

CITY           SKY/WX    TMP DP  RH WIND       PRES   REMARKS
ANTIGO         FAIR      69  61  76 CALM      29.86S
SHAWANO        FAIR      75  64  68 CALM      29.82S
OCONTO         FAIR      69  62  76 CALM      29.81R
STURGEON BAY   FAIR      69  61  75 W5        29.83R
GREEN BAY      FAIR      74  66  76 SW7       29.82R
MANITOWOC      NOT AVBL
APPLETON       SUNNY     75  61  60 SW5       29.82R
CLINTONVILLE   FAIR      72  63  74 NW5       29.83R
OSHKOSH        FAIR      78  66  66 VRB5      29.83R HX  80
$$

WIZ032>034-041-042-053>061-271400-
SOUTHWEST WISCONSIN

CITY           SKY/WX    TMP DP  RH WIND       PRES   REMARKS
LA CROSSE      FAIR      74  67  78 SE3       29.82R
SPARTA         FAIR      70  64  81 CALM      29.84R
VIROQUA        FAIR      77  69  74 CALM      29.85R
BOSCOBEL       FAIR      74  68  81 CALM      29.83S
PRAIRIE DU CHI FAIR      72  67  86 CALM      29.83R
PLATTEVILLE    FAIR      76  71  85 S6        29.86R
$$

WIZ056-057-062-063-064-067-068-271400-
SOUTH CENTRAL WISCONSIN

CITY           SKY/WX    TMP DP  RH WIND       PRES   REMARKS
REEDSBURG      FAIR      77  68  74 S3        29.84S
BARABOO/DELLS  FAIR      78  64  61 SW5       29.85R HX  80
LONE ROCK      FAIR      73  69  87 E5        29.84R
MINERAL POINT  FAIR      77  70  78 E5        29.87R
MADISON        FAIR      79  68  69 CALM      29.85R HX  81
MIDDLETON      PTSUNNY   81  66  61 W6        29.86R HX  83
WATERTOWN      FAIR      76  68  78 CALM      29.85S
MONROE         FAIR      77  66  69 CALM      29.86S
JANESVILLE     SUNNY     75  66  73 VRB6      29.85R
$$

WIZ051-052-058>065-066-070>072-271400-
SOUTHEAST WISCONSIN

CITY           SKY/WX    TMP DP  RH WIND       PRES   REMARKS
MILWAUKEE      FAIR      81  64  56 W7        29.85R HX  82
WAUKESHA       SUNNY     75  63  64 W6        29.87R
MILWAUKEE/TIMM SUNNY     77  61  57 SW5       29.86R
RACINE         FAIR      81  65  58 SW3       29.87R HX  83
BURLINGTON     FAIR      76  65  70 CALM      29.87R
KENOSHA        FAIR      78  66  66 SW3       29.86R HX  80
FOND DU LAC    FAIR      78  65  63 SW7       29.84R HX  80
SHEBOYGAN      FAIR      81  65  58 W7        29.83R HX  83
WEST BEND      FAIR      79  64  61 W3        29.85S HX  81
JUNEAU         FAIR      76  65  68 CALM      29.86S
$$

LSZ147-162-271400-
LAKE SUPERIOR

STATION/POSITION TIME  TEMP    WIND        PRES    WAVE
                       AIR SEA DIR/SP/G            HT/PER
                 (UTC) (F)     (DEG/KT/KT) (MB)    (FT/S)
W MID LAKE BUOY  1250   38 36   CALM  /  2 1010.6R   0
DEVILS ISLAND    1300   50     310/  3/  4 1010.9R
SAXON HARBOR     1240   57      CALM  /  1 1009.8R
$$

LMZ867-665-643>646-271400-
LAKE MICHIGAN

STATION/POSITION TIME  TEMP    WIND        PRES    WAVE
                       AIR SEA DIR/SP/G            HT/PER
                 (UTC) (F)     (DEG/KT/KT) (MB)    (FT/S)
N MID LAKE BUOY  1250   44 38  190/ 10/ 12 1009.5R   1/ 3
NORTHPORT PIER   1240   51     140/  4/  5 1009.5R
KEWAUNEE LAKESHO 1254   76     280/  6/  9 1008.8R
SHEBOYGAN LAKESH 1300   66     180/  6/  7 1009.7R
PORT WASHINGTON  1240   64     190/  4/  6 1011.2R
ATWATER BUOY     1237   62 50  140/  6/  6 1010.9R   1
MILWAUKEE LAKESH 1300   73     230/  3/  3   N/A
S MID LAKE BUOY  1250   53 40  210/  8/  8 1011.3R   0
KENOSHA   LAKESH 1300   81                 1010.8
$$

TC  - TEMPERATURE IN CELSIUS
VSB - VISIBILITY IN STATUTE MILES
WCI - WIND CHILL INDEX
HX  - HEAT INDEX





USA.gov is the U.S. government's official web portal to all federal, state and local government web resources and services.